Time,TemperatureF,DewpointF,PressureIn,WindDirection,WindDirectionDegrees,WindSpeedMPH,WindSpeedGustMPH,Humidity,HourlyPrecipIn,Conditions,Clouds,dailyrainin,SoftwareType,DateUTC
2013-08-09 00:05:00,71.9,70.0,30.01,NE,55,0.0,3.0,93,0.00,,,0.00,weatherlink.com 1.10,2013-08-09 04:05:00,
2013-08-09 00:20:00,71.9,70.0,30.02,West,262,0.0,2.0,93,0.00,,,0.00,weatherlink.com 1.10,2013-08-09 04:20:00,
2013-08-09 00:36:00,71.9,70.0,30.01,NW,313,0.0,4.0,93,0.00,,,0.00,weatherlink.com 1.10,2013-08-09 04:36:00,
2013-08-09 00:51:00,71.9,70.0,30.01,West,274,0.0,4.0,93,0.00,,,0.00,weatherlink.com 1.10,2013-08-09 04:51:00,
2013-08-09 01:06:00,72.0,70.0,30.01,NW,320,0.0,3.0,93,0.00,,,0.00,weatherlink.com 1.10,2013-08-09 05:06:00,
2013-08-09 01:21:00,72.0,70.0,30.00,East,86,0.0,4.0,93,0.00,,,0.00,weatherlink.com 1.10,2013-08-09 05:21:00,
2013-08-09 01:36:00,72.0,70.0,29.99,North,10,0.0,4.0,93,0.00,,,0.00,weatherlink.com 1.10,2013-08-09 05:36:00,
2013-08-09 01:51:00,72.1,70.0,29.99,NE,52,0.0,3.0,93,0.00,,,0.00,weatherlink.com 1.10,2013-08-09 05:51:00,
2013-08-09 02:06:00,72.1,70.0,29.99,NE,53,0.0,3.0,93,0.00,,,0.00,weatherlink.com 1.10,2013-08-09 06:06:00,
2013-08-09 02:21:00,72.1,70.0,29.98,ENE,63,0.0,3.0,93,0.00,,,0.00,weatherlink.com 1.10,2013-08-09 06:21:00,
2013-08-09 02:36:00,72.1,70.0,29.98,WNW,295,1.0,4.0,93,0.00,,,0.00,weatherlink.com 1.10,2013-08-09 06:36:00,
2013-08-09 02:51:00,72.2,70.0,29.98,SW,236,4.0,4.0,93,0.00,,,0.00,weatherlink.com 1.10,2013-08-09 06:51:00,
2013-08-09 03:06:00,72.3,70.0,29.98,NNW,342,0.0,2.0,92,0.00,,,0.00,weatherlink.com 1.10,2013-08-09 07:06:00,
2013-08-09 03:21:00,72.2,70.0,29.97,NNE,30,0.0,4.0,93,0.00,,,0.00,weatherlink.com 1.10,2013-08-09 07:21:00,
2013-08-09 03:36:00,72.1,70.0,29.97,West,260,0.0,2.0,93,0.00,,,0.00,weatherlink.com 1.10,2013-08-09 07:36:00,
2013-08-09 03:51:00,72.0,70.0,29.97,ENE,71,0.0,2.0,94,0.00,,,0.00,weatherlink.com 1.10,2013-08-09 07:51:00,
2013-08-09 04:06:00,71.9,70.0,29.96,ENE,65,0.0,2.0,94,0.00,,,0.00,weatherlink.com 1.10,2013-08-09 08:06:00,
2013-08-09 04:21:00,71.9,70.0,29.96,NE,40,0.0,2.0,94,0.00,,,0.00,weatherlink.com 1.10,2013-08-09 08:21:00,
2013-08-09 04:36:00,71.9,70.0,29.96,North,5,1.0,3.0,94,0.00,,,0.00,weatherlink.com 1.10,2013-08-09 08:36:00,
2013-08-09 04:51:00,71.9,70.0,29.96,NE,41,0.0,4.0,94,0.00,,,0.00,weatherlink.com 1.10,2013-08-09 08:51:00,
2013-08-09 05:06:00,72.0,71.0,29.95,East,82,2.0,4.0,95,0.02,,,0.02,weatherlink.com 1.10,2013-08-09 09:06:00,
2013-08-09 05:21:00,71.9,71.0,29.95,NNE,20,0.0,4.0,96,0.06,,,0.06,weatherlink.com 1.10,2013-08-09 09:21:00,
2013-08-09 05:36:00,71.9,71.0,29.95,ENE,63,1.0,6.0,96,0.11,,,0.11,weatherlink.com 1.10,2013-08-09 09:36:00,
2013-08-09 05:51:00,71.8,71.0,29.94,NE,44,2.0,10.0,97,0.17,,,0.17,weatherlink.com 1.10,2013-08-09 09:51:00,
2013-08-09 06:06:00,71.8,71.0,29.94,ENE,76,0.0,3.0,97,0.19,,,0.21,weatherlink.com 1.10,2013-08-09 10:06:00,
2013-08-09 06:21:00,71.9,71.0,29.94,ENE,57,0.0,3.0,97,0.20,,,0.26,weatherlink.com 1.10,2013-08-09 10:21:00,
2013-08-09 06:36:00,71.9,71.0,29.94,NE,53,0.0,2.0,97,0.21,,,0.32,weatherlink.com 1.10,2013-08-09 10:36:00,
2013-08-09 06:51:00,72.0,71.0,29.94,NNE,24,0.0,2.0,97,0.23,,,0.40,weatherlink.com 1.10,2013-08-09 10:51:00,
2013-08-09 07:06:00,72.1,71.0,29.93,NNE,32,0.0,2.0,97,0.25,,,0.46,weatherlink.com 1.10,2013-08-09 11:06:00,
2013-08-09 07:21:00,72.1,71.0,29.93,NNE,21,1.0,1.0,97,0.36,,,0.62,weatherlink.com 1.10,2013-08-09 11:21:00,
2013-08-09 07:36:00,72.1,71.0,29.93,NE,40,0.0,3.0,97,0.54,,,0.86,weatherlink.com 1.10,2013-08-09 11:36:00,
2013-08-09 07:51:00,72.2,71.0,29.93,NE,44,2.0,5.0,97,0.54,,,0.94,weatherlink.com 1.10,2013-08-09 11:51:00,
2013-08-09 08:06:00,72.2,71.0,29.93,NNE,15,0.0,3.0,97,0.54,,,1.00,weatherlink.com 1.10,2013-08-09 12:06:00,
2013-08-09 08:21:00,72.2,71.0,29.92,NE,46,0.0,4.0,97,0.43,,,1.06,weatherlink.com 1.10,2013-08-09 12:21:00,
2013-08-09 08:36:00,72.1,71.0,29.91,NE,46,1.0,2.0,97,0.27,,,1.13,weatherlink.com 1.10,2013-08-09 12:36:00,
2013-08-09 08:51:00,72.1,71.0,29.89,ENE,59,0.0,2.0,97,0.24,,,1.19,weatherlink.com 1.10,2013-08-09 12:51:00,
2013-08-09 09:06:00,72.1,72.0,29.89,SSE,152,0.0,2.0,98,0.26,,,1.26,weatherlink.com 1.10,2013-08-09 13:06:00,
2013-08-09 09:21:00,72.2,72.0,29.87,NE,50,0.0,2.0,98,0.25,,,1.31,weatherlink.com 1.10,2013-08-09 13:21:00,
2013-08-09 09:38:00,72.2,72.0,29.87,NNW,332,0.0,2.0,98,0.19,,,1.32,weatherlink.com 1.10,2013-08-09 13:38:00,
2013-08-09 09:52:00,72.3,72.0,29.86,NW,307,5.0,5.0,98,0.25,,,1.44,weatherlink.com 1.10,2013-08-09 13:52:00,
2013-08-09 10:07:00,72.4,72.0,29.86,NE,53,1.0,5.0,98,0.21,,,1.47,weatherlink.com 1.10,2013-08-09 14:07:00,
2013-08-09 10:22:00,72.4,72.0,29.85,North,355,0.0,4.0,98,0.20,,,1.52,weatherlink.com 1.10,2013-08-09 14:22:00,
2013-08-09 10:37:00,72.5,72.0,29.86,NNE,14,1.0,6.0,98,0.23,,,1.55,weatherlink.com 1.10,2013-08-09 14:37:00,
2013-08-09 10:52:00,72.6,72.0,29.85,North,355,2.0,5.0,98,0.21,,,1.65,weatherlink.com 1.10,2013-08-09 14:52:00,
2013-08-09 11:07:00,72.7,72.0,29.84,ENE,75,0.0,3.0,98,0.22,,,1.69,weatherlink.com 1.10,2013-08-09 15:07:00,
2013-08-09 11:22:00,72.8,72.0,29.84,NNW,332,0.0,6.0,98,0.19,,,1.71,weatherlink.com 1.10,2013-08-09 15:22:00,
2013-08-09 11:37:00,72.9,72.0,29.82,North,360,3.0,6.0,98,0.20,,,1.76,weatherlink.com 1.10,2013-08-09 15:37:00,
2013-08-09 11:52:00,73.1,73.0,29.80,West,271,3.0,11.0,98,0.12,,,1.77,weatherlink.com 1.10,2013-08-09 15:52:00,
2013-08-09 12:07:00,73.5,73.0,29.80,ENE,71,3.0,10.0,98,0.09,,,1.78,weatherlink.com 1.10,2013-08-09 16:07:00,
2013-08-09 12:22:00,73.6,73.0,29.80,SE,140,0.0,8.0,98,0.11,,,1.82,weatherlink.com 1.10,2013-08-09 16:22:00,
2013-08-09 12:37:00,73.7,73.0,29.79,NE,54,4.0,11.0,98,0.22,,,1.98,weatherlink.com 1.10,2013-08-09 16:37:00,
2013-08-09 12:52:00,73.7,73.0,29.78,East,98,3.0,13.0,98,0.25,,,2.02,weatherlink.com 1.10,2013-08-09 16:52:00,
2013-08-09 13:07:00,73.8,73.0,29.80,NNW,344,3.0,9.0,98,0.27,,,2.05,weatherlink.com 1.10,2013-08-09 17:07:00,
2013-08-09 13:22:00,73.9,73.0,29.80,WNW,303,3.0,7.0,97,0.32,,,2.14,weatherlink.com 1.10,2013-08-09 17:22:00,
2013-08-09 13:37:00,73.8,73.0,29.80,West,265,2.0,4.0,97,0.33,,,2.31,weatherlink.com 1.10,2013-08-09 17:37:00,
2013-08-09 13:52:00,73.4,72.0,29.80,East,84,0.0,3.0,96,0.37,,,2.39,weatherlink.com 1.10,2013-08-09 17:52:00,
2013-08-09 14:07:00,73.3,72.0,29.80,East,84,1.0,2.0,97,0.35,,,2.40,weatherlink.com 1.10,2013-08-09 18:07:00,
2013-08-09 14:22:00,73.5,73.0,29.79,NNE,22,1.0,2.0,97,0.26,,,2.40,weatherlink.com 1.10,2013-08-09 18:22:00,
2013-08-09 14:37:00,74.6,74.0,29.79,East,84,1.0,2.0,98,0.09,,,2.40,weatherlink.com 1.10,2013-08-09 18:37:00,
2013-08-09 14:52:00,75.4,75.0,29.80,East,84,2.0,3.0,97,0.01,,,2.40,weatherlink.com 1.10,2013-08-09 18:52:00,
2013-08-09 15:07:00,76.8,76.0,29.80,SE,134,2.0,6.0,96,0.00,,,2.40,weatherlink.com 1.10,2013-08-09 19:07:00,
2013-08-09 15:22:00,77.7,76.0,29.80,NE,40,0.0,3.0,94,0.00,,,2.40,weatherlink.com 1.10,2013-08-09 19:22:00,
2013-08-09 15:37:00,78.1,75.0,29.79,SSE,150,0.0,7.0,90,0.00,,,2.40,weatherlink.com 1.10,2013-08-09 19:37:00,
2013-08-09 15:52:00,78.4,76.0,29.79,NNW,348,0.0,2.0,92,0.00,,,2.40,weatherlink.com 1.10,2013-08-09 19:52:00,
2013-08-09 16:07:00,77.6,75.0,29.79,South,189,2.0,2.0,91,0.00,,,2.40,weatherlink.com 1.10,2013-08-09 20:07:00,
2013-08-09 16:22:00,77.4,74.0,29.80,South,182,1.0,2.0,90,0.00,,,2.40,weatherlink.com 1.10,2013-08-09 20:22:00,
2013-08-09 16:37:00,77.3,76.0,29.80,West,265,0.0,1.0,94,0.00,,,2.40,weatherlink.com 1.10,2013-08-09 20:37:00,
2013-08-09 16:52:00,76.9,75.0,29.79,West,265,0.0,1.0,95,0.00,,,2.40,weatherlink.com 1.10,2013-08-09 20:52:00,
2013-08-09 17:07:00,77.0,76.0,29.80,West,265,0.0,1.0,95,0.00,,,2.40,weatherlink.com 1.10,2013-08-09 21:07:00,
2013-08-09 17:22:00,76.9,75.0,29.80,West,265,0.0,1.0,94,0.00,,,2.40,weatherlink.com 1.10,2013-08-09 21:22:00,
2013-08-09 17:37:00,76.3,75.0,29.80,West,265,0.0,0.0,94,0.00,,,2.40,weatherlink.com 1.10,2013-08-09 21:37:00,
2013-08-09 17:52:00,75.9,74.0,29.80,West,265,0.0,0.0,95,0.02,,,2.42,weatherlink.com 1.10,2013-08-09 21:52:00,
2013-08-09 18:07:00,75.7,75.0,29.80,West,265,0.0,0.0,96,0.04,,,2.44,weatherlink.com 1.10,2013-08-09 22:07:00,
2013-08-09 18:22:00,75.7,75.0,29.80,West,265,0.0,2.0,97,0.08,,,2.48,weatherlink.com 1.10,2013-08-09 22:22:00,
2013-08-09 18:37:00,75.4,74.0,29.80,SSW,192,0.0,3.0,95,0.14,,,2.54,weatherlink.com 1.10,2013-08-09 22:37:00,
2013-08-09 18:53:00,75.2,74.0,29.80,SSW,192,0.0,0.0,97,0.12,,,2.54,weatherlink.com 1.10,2013-08-09 22:53:00,
2013-08-09 19:08:00,75.2,74.0,29.80,SSW,192,0.0,0.0,97,0.10,,,2.54,weatherlink.com 1.10,2013-08-09 23:08:00,
2013-08-09 19:23:00,74.9,74.0,29.81,SSW,192,0.0,2.0,97,0.06,,,2.54,weatherlink.com 1.10,2013-08-09 23:23:00,
2013-08-09 19:38:00,74.7,74.0,29.81,SSW,192,0.0,0.0,97,0.00,,,2.54,weatherlink.com 1.10,2013-08-09 23:38:00,
2013-08-09 19:53:00,74.6,74.0,29.81,SSW,192,0.0,0.0,97,0.00,,,2.54,weatherlink.com 1.10,2013-08-09 23:53:00,
2013-08-09 20:08:00,74.5,74.0,29.80,SSW,192,0.0,0.0,97,0.00,,,2.54,weatherlink.com 1.10,2013-08-10 00:08:00,
2013-08-09 20:23:00,74.4,74.0,29.81,SSW,192,0.0,1.0,97,0.00,,,2.54,weatherlink.com 1.10,2013-08-10 00:23:00,
2013-08-09 20:38:00,73.9,73.0,29.81,SSW,192,0.0,1.0,97,0.00,,,2.54,weatherlink.com 1.10,2013-08-10 00:38:00,
2013-08-09 20:53:00,73.4,73.0,29.82,SSW,193,0.0,0.0,97,0.00,,,2.54,weatherlink.com 1.10,2013-08-10 00:53:00,
2013-08-09 21:08:00,73.2,72.0,29.82,SSW,193,0.0,1.0,97,0.00,,,2.54,weatherlink.com 1.10,2013-08-10 01:08:00,
2013-08-09 21:23:00,73.0,72.0,29.82,SSW,193,0.0,1.0,97,0.00,,,2.54,weatherlink.com 1.10,2013-08-10 01:23:00,
2013-08-09 21:38:00,72.8,72.0,29.82,SSW,193,0.0,1.0,97,0.00,,,2.54,weatherlink.com 1.10,2013-08-10 01:38:00,
2013-08-09 21:53:00,72.5,72.0,29.82,SSW,193,0.0,1.0,97,0.00,,,2.54,weatherlink.com 1.10,2013-08-10 01:53:00,
2013-08-09 22:08:00,72.2,71.0,29.82,SSW,193,0.0,2.0,97,0.00,,,2.54,weatherlink.com 1.10,2013-08-10 02:08:00,
2013-08-09 22:23:00,72.0,71.0,29.83,SSW,193,0.0,0.0,97,0.00,,,2.54,weatherlink.com 1.10,2013-08-10 02:23:00,
2013-08-09 22:38:00,71.7,71.0,29.84,SSW,193,0.0,0.0,98,0.00,,,2.54,weatherlink.com 1.10,2013-08-10 02:38:00,
2013-08-09 22:53:00,71.6,71.0,29.83,SSW,193,0.0,1.0,98,0.00,,,2.54,weatherlink.com 1.10,2013-08-10 02:53:00,
2013-08-09 23:08:00,71.4,71.0,29.84,SSW,193,0.0,0.0,98,0.00,,,2.54,weatherlink.com 1.10,2013-08-10 03:08:00,
2013-08-09 23:23:00,71.2,71.0,29.85,SSW,193,0.0,0.0,98,0.00,,,2.54,weatherlink.com 1.10,2013-08-10 03:23:00,
2013-08-09 23:38:00,70.8,70.0,29.85,SSW,193,0.0,1.0,97,0.00,,,2.54,weatherlink.com 1.10,2013-08-10 03:38:00,
2013-08-09 23:53:00,70.8,70.0,29.85,SSW,193,0.0,1.0,98,0.00,,,2.54,weatherlink.com 1.10,2013-08-10 03:53:00,